TIMESTAMP,CO2_1_1_1,H2O_1_1_1,TAU_1_1_1,TAU_SSITC_TEST_1_1_1,H_1_1_1,H_SSITC_TEST_1_1_1,LE_1_1_1,LE_SSITC_TEST_1_1_1,FC_1_1_1,FC_SSITC_TEST_1_1_1,WD_0_0_1,WS_0_0_1,WS_MAX_0_0_1,U_SIGMA_0_0_1,V_SIGMA_0_0_1,W_SIGMA_0_0_1,USTAR_0_0_1,MO_LENGTH_0_0_1,ZL_0_0_1,FETCH_MAX_0_0_1,FETCH_70_0_0_1,FETCH_80_0_0_1,FETCH_90_0_0_1,PA_0_0_1,RH_0_0_1,TA_0_0_1,VPD_0_0_1,T_SONIC_0_0_1,T_SONIC_SIGMA_0_0_1
[yyyymmddHHMMSS],[mmolCO2 mol-1],[mmolH2O mol-1],[kg m-1 s-2],[#],[W m-2],[#],[W m-2],[#],[umolCO2 m-2 s-1],[#],[Decimal degrees],[m s-1],[m s-1],[m s-1],[m s-1],[m s-1],[m s-1],[m],[#],[m],[m],[m],[m],[kPa],[%],[deg C],[hPa],[deg C],[deg C]
20240318003000,418.84559522661129,2.6701955077559427,0.61964784709601828,0,10.628651528600008,1,-5.8946995877399475,2,1.0241478395721044,0,319.14218326066884,3.1473455090763247,9.2905026142294709,1.4373891615778713,1.0956979668685691,0.81851027224835937,0.70607562832227677,-2770.2719731434213,-6.8585323694556758E-003,111.25423951388743,203.40823255117957,243.42770317627534,304.74259819460752,94.503750526504945,78.718333333333334,-8.5283333333333076,0.68239892008217451,-8.2699857850718104,6.1044474743356454E-002
20240318010000,418.95288561500280,2.7590009477670159,0.61039750503507983,0,3.3152209438763589,0,2.7886171502666208,2,1.2269105417500650,0,313.09893512723011,2.9147217063826347,8.0964048402419202,1.3640493312720152,1.0309357302394135,0.76292461782745036,0.70053427119023570,-8677.1214810642978,-2.1896662437494818E-003,116.95346841900179,213.82824066555978,255.89779158198192,320.35366912403100,94.548641619140639,81.840000000000003,-8.6013333333333435,0.57899371056022231,-8.3325627838416949,4.3313132961105096E-002
20240318013000,419.05298173298320,2.8289040331230986,0.46555191135474400,0,1.7495892108123723,0,-1.2375796624369699,1,1.0601285015947575,0,310.97385724763762,3.4054047319361036,8.3269117338425538,1.3743251465549355,1.0706477480107948,0.77317509145472707,0.61163991424773523,-10946.374850853932,-1.7357344562814602E-003,103.80762889722769,189.79345336928120,227.13428975866555,284.34517804253170,94.583505230034717,84.239999999999995,-8.6463333333333594,0.50071194706609734,-8.3748585949650192,4.6998632441945611E-002
20240318020000,419.16389492985627,2.8937361650382716,0.34575671256350343,0,-2.2728662862447497,0,1.7585245744217819,1,0.89498484602823092,0,312.46061819472880,3.2429849196362914,7.5629468255101173,1.2179214243416914,0.96403342216473920,0.69159246394335760,0.52699913165449086,5390.9615311736279,3.5244176553906230E-003,100.74479504935965,184.19361625462457,220.43271495077695,275.95560162085133,94.610091531684034,86.453333333333333,-8.6846666666666579,0.42910500065904161,-8.4011787626478167,4.1599431984068770E-002
20240318023000,419.26835611733196,2.9393742775034206,0.33758445493369099,0,-1.0837674826444383,2,0.47637573806419309,1,1.0192174967826471,0,311.98322495060432,3.3599152435842203,8.2790876118206835,1.2870914572588297,0.98718852471583396,0.71070756070835894,0.52075292167784915,10909.425738005293,1.7416132119410720E-003,97.635448031680681,178.50873823093892,213.62936789453187,267.43861842096288,94.618985717664927,87.553333333333327,-8.6449999999999818,0.39548501309474887,-8.3592435349358425,4.4762321015717872E-002
20240318030000,419.26705451908725,2.9119967498156112,0.50685549777633088,0,-1.1952011895441570,1,-0.22614552342199853,0,1.5102368885540354,0,316.27533282394097,3.7784308160514235,9.3527118308442301,1.5771750057674869,1.2108004656616389,0.82238420786299948,0.63804346510985077,18197.023034718815,1.0441268312816417E-003,102.20574356531735,186.86469608742618,223.62931530733215,279.95736594486101,94.634112487413191,86.713333333333338,-8.6393333333333544,0.42236238846314339,-8.3606257019042687,5.6288596588018415E-002
20240318033000,419.32925147426397,2.8801212541756871,0.56281876012658327,0,-9.2778706657737455,0,-0.49109697039827827,2,1.4246796184990491,0,316.70289008741713,3.5158771463006713,9.7253324843811377,1.4564192841304020,1.1617230918145089,0.86193476030674343,0.67213279038223528,2740.5576992719884,6.9328954486334035E-003,102.62175796369958,187.62530308865607,224.53956762606563,281.09689383344579,94.644532409288189,86.683333333333337,-8.7743333333333453,0.41887332758491652,-8.4942512927584630,9.3726654870075379E-002
20240318040000,419.33946715016270,2.8695712919164444,0.58867294510998180,0,-10.431170391809385,0,-0.96463128559126832,0,1.3761413612121007,0,310.65145247866860,3.8152704396499799,8.9637955073623861,1.4920408988857572,1.2176808835832318,0.84943593561509589,0.68714574228108360,2604.7781276875357,7.2942872938156073E-003,105.67919190245232,193.21526744723727,231.22932726646900,289.47167906747347,94.655673012586803,87.473333333333329,-8.9356666666666911,0.38908097049149720,-8.6637618662516616,7.8436807931028793E-002
20240318043000,419.40729481614841,2.8924205263726011,0.45473665532491880,0,-16.594112392560696,0,0.10992959908813857,2,1.1526848320943441,0,309.70322825253572,3.5698281551593865,7.9802596377260206,1.3065029582026217,1.0111760592870946,0.79021959631082639,0.60378800674654454,1111.0371177108968,1.7101138834268895E-002,100.96346556909464,184.59341570608538,220.91117278397087,276.55457405213821,94.677239315972230,88.693333333333328,-9.0083333333333258,0.34919427249490470,-8.7235821147494335,6.7917614258910255E-002
20240318050000,419.42354628833255,2.9597473069962716,0.34716728576064859,0,-2.2433551393005929E-002,2,1.4521517884365498,1,0.88505833818540347,0,314.44943329842795,3.1136538603005661,7.6408855748011932,1.1574090953735749,1.0124622926158302,0.67338058538756096,0.52776759848840371,548946.11181522463,3.4611776258277612E-005,103.03875586859444,188.38770825346438,225.45197188734508,282.23911569873940,94.697043736762154,88.989999999999995,-8.7543333333333067,0.34685954248485418,-8.4633803032768355,0.10611148268246569
20240318053000,419.44169002379101,3.0138808772830199,0.52368629694578894,0,7.8164728388580934E-002,2,0.78055194729081612,2,1.0446118568709997,0,320.87388496318295,3.2782008902029016,8.5014619717323185,1.2950506684700589,0.98277466514430178,0.74866282009207241,0.64850565411821193,-292312.31483162235,-6.4998972112907305E-005,111.62382508194796,204.08395284286544,244.23636778405276,305.75495032391166,94.700825219618054,88.836666666666673,-8.4996666666666556,0.35875500111863401,-8.2001811657657981,7.6324060419502932E-002
20240318060000,419.55631926287111,3.0599706931009916,0.25625838042644777,0,-0.73142928651939176,0,0.56579053464655782,2,0.70670279703143957,0,316.46538281619922,2.5566070696777041,6.1817199564015235,0.94845904654486290,0.87909006688824420,0.61346000897260966,0.45376481031544824,10701.389197267699,1.7754704225551501E-003,98.376313719917405,179.86327699602779,215.25040484231545,269.46796432034603,94.700747903645848,89.260000000000005,-8.3659999999999854,0.34876633215432035,-8.0614193848503533,4.5913551957910373E-002
20240318063000,419.54832347680423,3.0847686245757062,0.33595536706448204,0,-1.5522051193080406,2,-0.65665957947241183,1,0.87034455288905854,0,314.41565607572284,3.0083853213717333,7.2889307423469019,1.2946022716214312,0.99628212449833453,0.67878538088723273,0.51963695840414992,7573.5917059848452,2.5087172292355972E-003,101.11810944535068,184.87615403301609,221.24953834893063,276.97816758754925,94.709522433159734,89.263333333333335,-8.2616666666666561,0.35150304417572559,-7.9551934914765070,6.9042228424850180E-002
20240318070000,419.44469694115361,3.0990927842385925,0.29986255440064413,0,1.8054939135726060,1,-8.4061399915750470E-002,1,0.82198845883281213,0,317.50014874357657,3.2981029558637478,8.3050904315001688,1.1807486250584722,1.0610401323304273,0.67020405560739782,0.49103226445988646,-5494.0556119640323,-3.4582831594614713E-003,97.628649581804325,178.49630849631055,213.61449267678023,267.41999641349543,94.711557944010423,88.890000000000001,-8.1480000000000246,0.36695701247722640,-7.8496103676689586,5.0432395975038118E-002
20240318073000,419.44947225300791,3.0958912723802339,0.32498491302271870,0,-0.30425336592264302,2,0.42172635667029945,0,0.74996343495250528,0,318.12292570313070,2.7623916902726307,7.9060186982701541,1.2560201984408830,0.98895824569935387,0.69179093293774141,0.51118983980210320,36786.224173510171,5.1649769518019562E-004,98.297116469135062,179.71847916293004,215.07711881798002,269.25103078074574,94.716180834418395,88.696666666666673,-8.1326666666666370,0.37378820539245849,-7.8340690655178378,4.4124531721900465E-002
20240318080000,419.46063862773599,3.1008325147083005,0.40599604280832818,0,1.4327492866848466,0,4.5493064452333538E-002,1,1.1054560141948857,0,314.15458020045651,3.5187690262563098,7.9912095287164302,1.2813181828767630,1.0707654308556651,0.74094245550373627,0.57138002117586506,-10908.533648163266,-1.7417556394666428E-003,101.71086697904272,185.95990385492416,222.54651009218787,278.60182230584149,94.712240390407985,88.799999999999997,-8.1276666666666415,0.37051513701262423,-7.8325546870761400,4.5449921013227826E-002
20240318083000,419.53843168473310,3.1078009025381208,0.58477281829540473,0,3.7402143211818313,0,0.11699058587285122,2,1.0384797622801929,0,317.96092202741715,3.1315004715827559,7.7681936498428668,1.3834540505430326,1.0189107412907494,0.72157478192349911,0.68574428030631418,-7223.4341155679595,-2.6303278601311200E-003,120.21525375764342,219.79182455767409,263.03467838026404,329.28820450168416,94.709713402343752,89.013333333333335,-8.1299999999999955,0.36339175874970975,-7.8293326979742801,4.8177281014329942E-002
20240318090000,419.48470130806874,3.1094993832409585,0.37902287506484561,0,5.3285541448669047,0,-0.33136180500115520,1,1.1453513048614321,0,312.24164410669687,3.5492322606161251,8.0947227179350580,1.3780501085405801,1.1167186783971579,0.75132783296450290,0.55204408863168708,-2645.3723004329290,-7.1823538777095949E-003,97.852140166071393,178.90492056301673,214.10349695964950,268.03217174828859,94.716192643446178,89.176666666666662,-8.1456666666666706,0.35755346042555969,-7.8542330397146429,4.7350001785426220E-002
20240318093000,419.50392982515666,3.1146679496798888,0.46062381960760951,0,5.3435211515681074,0,0.94149726617262874,1,0.98783890891765003,0,308.30591418706240,3.2534605351958894,7.9544108408314722,1.3833876458529422,1.0386430719196029,0.76611349378949434,0.60851392863771625,-3533.4810778684523,-5.3771336484591042E-003,104.14461748830897,190.40957599077643,227.87163117668211,285.26824200177282,94.729494231553829,89.453333333333333,-8.1623333333333221,0.34796226041413719,-7.8657176674736888,4.3992087953490640E-002
20240318100000,419.45355886684143,3.1272269536530475,0.52409419057519324,0,5.8194169702912868,0,1.4837529161275111,1,1.2062961796666503,0,306.23112167193273,3.2989877368924687,8.8908666567552856,1.4547978422960144,1.1830353758859817,0.74956851873539521,0.64907230119748949,-3938.2033471133959,-4.8245350291336586E-003,111.59385749323400,204.02916253302411,244.17079777681306,305.67286445566771,94.753500421657989,89.453333333333333,-8.1073333333333153,0.34945385386941041,-7.8083005464341682,4.9089094155532552E-002
20240318103000,419.39958524111358,3.1551028713979798,0.33442896513033521,0,6.8745830800855909,0,-0.89010936710370803,1,1.2217668279492904,0,305.86780199735762,4.1240903767809574,9.3419259548608355,1.6102205736929369,1.1323556676753959,0.73788140311653927,0.51841782699151451,-1699.0982543382736,-1.1182402166259472E-002,94.408172250258886,172.60824881568124,206.56798907049287,258.59861006695991,94.791596502170137,90.076666666666668,-8.0773333333333426,0.32956805913283915,-7.7892182685004059,5.1206662518622374E-002
20240318110000,419.32719667455109,3.1757660881370562,0.77086517755247996,0,6.7346740302645900,0,1.7279915428772656,1,1.4388471693185818,0,311.74922387191691,3.8425608402126707,9.3442643037306823,1.6176042739992371,1.2838278510375838,0.85868791088819285,0.78696219457355943,-6068.0115594694744,-3.1311739955981839E-003,116.77495710908455,213.50186505776887,255.50720333694952,319.86469899013770,94.814502532757189,90.796666666666667,-8.0926666666666733,0.30529170464257788,-7.8019429187294236,5.6198121458668732E-002
20240318113000,419.29894898063571,3.1093821169817120,0.71583096696243231,0,3.1813808110278963,0,0.72014960769393799,1,1.5676900316553570,0,314.02549134324829,3.4508909429402603,9.0216279793157668,1.4762470221285722,1.0986003394906696,0.88757406263540395,0.75833258752981558,-11495.059654837083,-1.6528839841213753E-003,110.40252168803400,201.85102072405135,241.56411833665302,302.40961111642218,94.830037770399301,88.653333333333336,-8.0550000000000068,0.37749371594285208,-7.7612510918510793,4.6947928238388247E-002
20240318120000,419.33465098513415,3.0858453711556826,0.38188600345770091,0,2.0745106089068308,0,0.69369465839458866,0,1.2182556115753584,0,310.15109019886233,3.5266467097888028,8.1119229059841764,1.3139046783015076,1.0341310160160391,0.76386038976661375,0.55379289696656642,-6866.8235928722497,-2.7669270577624808E-003,96.810310402240134,177.00012348017228,211.82394134344787,265.17843861871398,94.855536313151035,88.120000000000005,-8.0716666666666583,0.39472558359199411,-7.7800542187160886,4.0943174853013853E-002
20240318123000,419.37205669726711,3.0775526334013952,0.34048171946284472,0,2.9857901377693974,0,-0.49918342209261113,2,0.90865151162092761,0,312.10788890178299,2.8133676307406406,7.4874015494362656,1.2248109641005895,1.0769909886675402,0.67795705935910988,0.52285394216130732,-4015.7143158218855,-4.7314122733134022E-003,101.71791733343466,185.97279415134784,222.56193648477935,278.62113431880368,94.871486734809039,87.980000000000004,-8.0836666666666588,0.39900485940309977,-7.7906220444572796,4.0231953597266737E-002
20240318130000,419.34090485362935,3.0990095253477126,0.44384859071530097,0,7.7945721292147274,0,1.9978140309658863,1,0.81463180642197386,0,317.21530618840063,2.7777126339054110,8.2589228262059784,1.2790327582788368,1.0092733438933477,0.68375358070916670,0.59691755887002007,-2289.3313131172890,-8.2993666714532791E-003,112.32248218781902,205.36132085765303,245.76505105341030,307.66868037699152,94.894554202256941,88.493333333333339,-8.0659999999999741,0.38248962405262377,-7.7691532355414097,4.8305429976470304E-002
20240318133000,419.23519815898851,3.0806755492689133,0.57571060111523520,0,12.994233574096324,0,2.7670914821769546,1,1.2963217235361293,0,322.27315586103356,3.1665227452373439,7.6935447681074294,1.4845838363770361,1.1241134341357162,0.77552630787793875,0.67986001789123174,-2029.0873475926667,-9.3638157186982738E-003,112.69723816345231,206.04649430339884,246.58502867222825,308.69519505366765,94.905597848958337,87.586666666666659,-8.0083333333333258,0.41448105946340091,-7.7180758310953479,6.7422738745847213E-002
20240318140000,419.17799304456184,3.1223507574484048,0.33063020430807399,0,14.057385038043828,0,-0.12843552236973818,2,0.95152620481276962,0,321.50350094208733,3.1922833068506331,8.0511299368911580,1.2788859401297705,0.96416288595915456,0.71952446649187685,0.51517811242738965,-816.25063562787193,-2.3277164109507763E-002,95.848290125053992,175.24124359284539,209.71901134250896,262.54331603761892,94.923975206805309,88.726666666666659,-7.9993333333333112,0.37667974531563003,-7.7172052655477046,7.1975831267949986E-002
20240318143000,419.24245905828445,3.1795342405457254,0.36202591664311751,0,25.280462607339484,0,1.8598342017714626,1,0.92458419980978213,0,307.43216556258102,3.3644820239380930,8.0501802643626537,1.4918755052363084,1.3666192192884898,0.75745157320757917,0.53910373833705816,-520.10848383567350,-3.6530840373684398E-002,95.391324060108772,174.40576388427417,208.71915551584422,261.29161518984324,94.924601279730908,90.239999999999995,-7.9833333333333485,0.32651978224252048,-7.6975816624959066,9.5593646630297430E-002
20240318150000,419.15190657510755,3.1369490233385577,0.79117041178909941,0,46.557447589305085,0,-0.83038230427471749,1,1.2200541953170274,0,286.14945912134976,3.2565613969457381,9.2462258906286934,1.4971399775880088,1.2956467564972634,0.92382506310006574,0.79682599142788535,-912.01331434303893,-2.0833029190682910E-002,111.24330956483051,203.38824911837506,243.40378811104830,304.71265937080818,94.937178778211802,89.396666666666661,-8.0343333333333362,0.35333068157817649,-7.7640604790581165,0.12873921789176329
20240318153000,419.10911733996193,3.0674901019035627,0.77390897249634172,0,78.051480377891849,0,9.8813462189774750,1,1.3882365218914301,0,282.25959718130122,3.9075821684730907,9.9066835047086155,1.5863015007370178,1.2868602900183337,0.95558636339340697,0.78783497704789074,-525.81474390814367,-3.6134399463167530E-002,107.29689426179259,196.17294329981638,234.76890986105309,293.90281645374239,94.941354777777775,88.446666666666673,-8.1843333333333135,0.38052299606868817,-7.9466040623982508,0.15504595882619834
20240318160000,419.07247931742069,3.0081971557260827,0.52377193887443707,0,63.749665053051729,0,6.3098887846805596,0,0.80457121111784891,0,276.79903850804476,3.2859266094257489,8.0004465185120228,1.3101372606527850,1.0792966511719291,0.82163153401424516,0.64806295176772322,-358.28661502148253,-5.3030169711644898E-002,103.56356127431208,189.34721991321561,226.60026228136996,283.67663901096341,94.927028781684029,87.319999999999993,-8.2723333333333358,0.41478036528499729,-8.0351128768920717,0.15549222244948813
20240318163000,418.97410622164790,2.9021842280718841,0.51904873204015967,0,87.435492551871064,0,8.2189614321781104,1,0.85416837027202719,0,277.96419334470392,2.8409287553414306,6.9029095165889460,1.2844857406600096,1.2956740681934207,0.84455588514471891,0.64536036833109556,-257.93765309502606,-7.3661211428485265E-002,100.97038661879904,184.60606959230063,220.92631625392286,276.57353187952862,94.910332790147578,83.252666666666670,-8.1226666666666461,0.55424586823587618,-7.8962673712836136,0.19679653935816763
20240318170000,418.82676319485250,2.8271424234985778,0.55075302852179697,0,153.01195534144969,0,21.262977747692013,1,0.57354494254890043,1,283.50862518674757,3.1582715842543836,7.4771138690042864,1.3234718289763001,1.2544940275277354,0.80621661271836631,0.66530063686249175,-161.43954637415652,-0.11769111365046271,107.37615709096963,196.31786103113481,234.94233937293620,294.11992962272552,94.876586611185957,79.019999999999996,-7.7926666666666620,0.71234712687292701,-7.5952412589707023,0.29132726016814664
20240318173000,418.84652703309172,2.8310316404782769,0.51747744916678429,0,125.88201275222454,0,9.3371642732851061,0,0.68122843001393141,0,274.50907761664541,3.0350248184238997,7.8717361331658351,1.3767469406089761,1.3623946584619853,0.77616914540409199,0.64524156816540290,-178.97221868762023,-0.10616172800071712,108.01092133357220,197.47841251428397,236.33122308928105,295.85864722465197,94.845914699218753,77.864666666666665,-7.5889999999999986,0.76352888124092833,-7.4200827450222278,0.29347300155272771
20240318180000,418.74619512718249,2.8066345956642329,0.46341120269614983,0,153.11824484189509,0,12.507234590078957,0,0.96359874552476432,0,264.54198142742473,2.5566933453813854,7.0913360522257154,1.2783151684132035,1.2358469168074382,0.79300976312572058,0.61085406977698731,-124.81449688055581,-0.15222590704493646,101.62066903527314,185.79499324655467,222.34915421272666,278.35475616385662,94.814849009623785,76.380333333333340,-7.4563333333333048,0.82313473043195362,-7.2630626167056676,0.33717480989161697
20240318183000,418.70560634984008,2.7785941039660154,0.58032169052487759,0,181.91406581923434,0,22.184457972977871,0,0.93040117697070968,0,255.47298824305258,3.4509422938832506,7.7781381713902968,1.4843783707763720,1.3623122436904809,0.77809567466580365,0.68395475734728717,-147.42305900702183,-0.12888078790370930,112.94068011026967,206.49158382400765,247.11768715094726,309.36202026146941,94.775473428385425,74.515000000000001,-7.2716666666666470,0.90090393481191888,-7.1516766408284411,0.38644010010279456
20240318190000,418.37216441336096,2.8054123924777619,0.59578195769120623,0,234.50534385155007,0,18.485862744944942,0,-0.35411580244881036,2,245.19065579813287,2.3136094358880799,7.8327184337445228,1.2471090824334399,1.2854373292493424,0.83335351581379102,0.69416936772126536,-119.49003162603979,-0.15900908001650771,108.18420012235836,197.79522140462029,236.71036241689401,296.33328467251408,94.694183979600709,71.432666666666663,-6.6093333333333248,1.0626967084454424,-6.4614749501545248,0.53393292763082223
20240318193000,418.40283976622908,2.8054979390044852,0.62891645586133238,0,223.62888790427616,0,16.713328182647881,0,0.47107481979630489,2,243.56915126957458,3.3824288928328778,8.9873254545593753,1.5924215110784798,1.2538889902939898,0.82867907438795829,0.71442939449803655,-136.55927822381454,-0.13913371721883189,111.20216788185857,203.31302900043556,243.31376884136091,304.59996592723473,94.657417540147577,67.129666666666665,-5.8020000000000209,1.3006807195615704,-5.7136760152179704,0.54291245129357601
20240318200000,418.28150957609250,2.8113121076168373,0.73655551530235108,0,184.72877976665978,0,21.118875218076216,1,0.30212645271465516,2,238.02394343013080,3.0109191092715375,8.9365996282355713,1.5572271358784562,1.0569472021837869,0.80516641295942371,0.77446016460035760,-210.50456189141579,-9.0259326587899494E-002,121.37958461726738,221.92059271334819,265.58227016763266,332.47748711123069,94.603658346354180,63.497000000000000,-5.0503333333333558,1.5293568222121685,-4.9853428853352852,0.42519448322853459
20240318203000,418.17022703161769,2.8152134765562358,0.71169766013862934,0,207.77440696185039,0,13.840287210631423,0,0.50012416990119901,2,231.00183011481886,2.7292536765938258,7.0731349954504310,1.2733634912631413,1.2345259735817269,0.86700435397899711,0.76255647427314865,-178.58707260053006,-0.10639067947823905,112.99402711300661,206.58911915916468,247.23441203625802,309.50814596679970,94.549799263888886,60.064000000000000,-4.3036666666666861,1.7702668464269062,-4.2187188245984544,0.41936952714242354
20240318210000,418.17322926643135,2.8186155890064697,0.77603736849798011,0,152.27336273468143,0,13.299818051287327,0,1.3545338413560624,0,231.63068937965284,3.1440530283589916,7.5748868524671815,1.3852999837514288,1.2867283830148766,0.90317814822639875,0.79717449949941166,-278.29264286532992,-6.8273454175338699E-002,113.31277638935477,207.17189449619667,247.93184527178738,310.38124961724407,94.500095227430549,58.051000000000002,-3.8410000000000082,1.9252914490390520,-3.7366302405463330,0.26935856172623607
20240318213000,418.07409903211339,2.8605157469561688,0.82029158587975659,0,116.11432970676000,0,15.139799684035870,0,1.3331097857645116,0,218.81806304335004,3.1928623203663351,9.2260429692420836,1.6799146915455534,1.2527515969202545,0.87458399391383956,0.82052134363710227,-397.82607124468001,-4.7759564727758101E-002,118.98318383939558,217.53920779857083,260.33887144596542,325.91337411603041,94.450960238932296,56.854666666666667,-3.3726666666666461,2.0508547865496420,-3.2386962788899609,0.26742912310205280
20240318220000,418.01804983265146,2.9156543872312350,0.62344075335280880,0,72.806453829410799,0,10.388835038804508,0,1.9935336999366349,0,226.48294128947185,3.4576256947810990,9.9993428136164386,1.4992489750110398,1.4066086698380107,0.87521682357149577,0.71591590071014388,-421.27414726649079,-4.5101272231597267E-002,106.62326585185477,194.94133572368793,233.29499014939137,292.05764387641756,94.400399680111619,56.655666666666669,-3.0769999999999982,2.1062762386472151,-2.9652591031067459,0.23122420868325763
20240318223000,418.13223663057931,2.9407438978052776,0.81591259022539431,0,81.991548455461526,0,10.743414012034899,0,2.0195252935511219,0,229.65239741215339,3.1948973056486492,9.3601965619855125,1.7353801915477227,1.1163872598815394,0.94391328460179635,0.81956819436609940,-561.07400811040827,-3.3863625342382950E-002,111.83488562960773,204.46983883829665,244.69817476392546,306.33307786270257,94.364541568142357,55.998666666666665,-2.8103333333333467,2.1810753444151731,-2.6594661127725772,0.15765373825810067